Time,TemperatureF,DewpointF,PressureIn,WindDirection,WindDirectionDegrees,WindSpeedMPH,WindSpeedGustMPH,Humidity,HourlyPrecipIn,Conditions,Clouds,dailyrainin,SoftwareType,DateUTC
2013-06-05 00:02:00,82.0,76.0,29.91,East,101,11.0,16.0,82,0.00,,,0.00,weatherlink.com 1.10,2013-06-05 04:02:00,
2013-06-05 00:17:00,82.0,76.0,29.90,East,82,8.0,17.0,81,0.00,,,0.00,weatherlink.com 1.10,2013-06-05 04:17:00,
2013-06-05 00:32:00,81.9,76.0,29.90,East,92,9.0,18.0,82,0.00,,,0.00,weatherlink.com 1.10,2013-06-05 04:32:00,
2013-06-05 00:47:00,81.8,76.0,29.89,ESE,120,10.0,15.0,82,0.00,,,0.00,weatherlink.com 1.10,2013-06-05 04:47:00,
2013-06-05 01:02:00,81.8,76.0,29.89,ENE,67,4.0,16.0,81,0.00,,,0.00,weatherlink.com 1.10,2013-06-05 05:02:00,
2013-06-05 01:17:00,81.8,76.0,29.89,ENE,67,4.0,17.0,82,0.00,,,0.00,weatherlink.com 1.10,2013-06-05 05:17:00,
2013-06-05 01:33:00,81.7,75.0,29.88,ESE,111,5.0,17.0,81,0.00,,,0.00,weatherlink.com 1.10,2013-06-05 05:33:00,
2013-06-05 01:48:00,81.7,75.0,29.88,ESE,106,9.0,16.0,81,0.00,,,0.00,weatherlink.com 1.10,2013-06-05 05:48:00,
2013-06-05 02:03:00,81.7,75.0,29.87,East,92,6.0,14.0,81,0.00,,,0.00,weatherlink.com 1.10,2013-06-05 06:03:00,
2013-06-05 02:18:00,81.7,75.0,29.87,NE,53,10.0,15.0,81,0.00,,,0.00,weatherlink.com 1.10,2013-06-05 06:18:00,
2013-06-05 02:33:00,81.6,75.0,29.86,ENE,71,7.0,13.0,81,0.00,,,0.00,weatherlink.com 1.10,2013-06-05 06:33:00,
2013-06-05 02:48:00,81.7,76.0,29.86,ESE,103,7.0,16.0,82,0.00,,,0.00,weatherlink.com 1.10,2013-06-05 06:48:00,
2013-06-05 03:03:00,81.6,76.0,29.86,SE,130,7.0,14.0,82,0.00,,,0.00,weatherlink.com 1.10,2013-06-05 07:03:00,
2013-06-05 03:18:00,81.6,76.0,29.86,ENE,77,7.0,16.0,82,0.00,,,0.00,weatherlink.com 1.10,2013-06-05 07:18:00,
2013-06-05 03:33:00,81.5,76.0,29.85,East,98,9.0,17.0,82,0.00,,,0.00,weatherlink.com 1.10,2013-06-05 07:33:00,
2013-06-05 03:48:00,81.4,75.0,29.85,ENE,68,4.0,12.0,82,0.00,,,0.00,weatherlink.com 1.10,2013-06-05 07:48:00,
2013-06-05 04:03:00,81.6,76.0,29.86,East,84,13.0,19.0,83,0.00,,,0.00,weatherlink.com 1.10,2013-06-05 08:03:00,
2013-06-05 04:18:00,81.6,76.0,29.86,ESE,111,8.0,19.0,82,0.00,,,0.00,weatherlink.com 1.10,2013-06-05 08:18:00,
2013-06-05 04:33:00,81.6,76.0,29.86,East,98,10.0,21.0,82,0.00,,,0.00,weatherlink.com 1.10,2013-06-05 08:33:00,
2013-06-05 04:48:00,81.7,76.0,29.86,SSE,165,5.0,18.0,82,0.00,,,0.00,weatherlink.com 1.10,2013-06-05 08:48:00,
2013-06-05 05:03:00,81.6,76.0,29.86,NE,55,12.0,17.0,82,0.00,,,0.00,weatherlink.com 1.10,2013-06-05 09:03:00,
2013-06-05 05:18:00,81.6,76.0,29.86,SE,129,11.0,18.0,82,0.00,,,0.00,weatherlink.com 1.10,2013-06-05 09:18:00,
2013-06-05 05:33:00,81.6,76.0,29.87,East,92,10.0,15.0,82,0.00,,,0.00,weatherlink.com 1.10,2013-06-05 09:33:00,
2013-06-05 05:48:00,81.6,76.0,29.86,ENE,59,12.0,16.0,82,0.00,,,0.00,weatherlink.com 1.10,2013-06-05 09:48:00,
2013-06-05 06:03:00,81.6,76.0,29.87,SE,126,7.0,16.0,82,0.00,,,0.00,weatherlink.com 1.10,2013-06-05 10:03:00,
2013-06-05 06:18:00,81.7,76.0,29.88,ESE,107,5.0,17.0,83,0.00,,,0.00,weatherlink.com 1.10,2013-06-05 10:18:00,
2013-06-05 06:33:00,81.8,77.0,29.89,ESE,113,7.0,15.0,84,0.00,,,0.00,weatherlink.com 1.10,2013-06-05 10:33:00,
2013-06-05 06:48:00,82.1,77.0,29.89,East,91,7.0,17.0,83,0.00,,,0.00,weatherlink.com 1.10,2013-06-05 10:48:00,
2013-06-05 07:03:00,82.5,77.0,29.89,East,89,2.0,19.0,83,0.00,,,0.00,weatherlink.com 1.10,2013-06-05 11:03:00,
2013-06-05 07:18:00,82.8,77.0,29.90,NE,36,8.0,17.0,82,0.00,,,0.00,weatherlink.com 1.10,2013-06-05 11:18:00,
2013-06-05 07:33:00,83.0,76.0,29.90,SE,132,6.0,18.0,80,0.00,,,0.00,weatherlink.com 1.10,2013-06-05 11:33:00,
2013-06-05 07:48:00,83.5,76.0,29.91,ESE,102,8.0,19.0,79,0.00,,,0.00,weatherlink.com 1.10,2013-06-05 11:48:00,
2013-06-05 08:03:00,83.8,76.0,29.90,ENE,69,8.0,22.0,77,0.00,,,0.00,weatherlink.com 1.10,2013-06-05 12:03:00,
2013-06-05 08:18:00,84.3,76.0,29.91,East,89,9.0,22.0,76,0.00,,,0.00,weatherlink.com 1.10,2013-06-05 12:18:00,
2013-06-05 08:33:00,84.9,77.0,29.91,NE,46,6.0,21.0,76,0.00,,,0.00,weatherlink.com 1.10,2013-06-05 12:33:00,
2013-06-05 08:48:00,85.0,77.0,29.91,East,100,16.0,19.0,76,0.00,,,0.00,weatherlink.com 1.10,2013-06-05 12:48:00,
2013-06-05 09:03:00,85.4,77.0,29.91,ESE,106,7.0,19.0,76,0.00,,,0.00,weatherlink.com 1.10,2013-06-05 13:03:00,
2013-06-05 09:18:00,85.4,76.0,29.91,ENE,68,9.0,24.0,73,0.00,,,0.00,weatherlink.com 1.10,2013-06-05 13:18:00,
2013-06-05 09:33:00,86.0,76.0,29.92,East,101,23.0,23.0,72,0.00,,,0.00,weatherlink.com 1.10,2013-06-05 13:33:00,
2013-06-05 09:48:00,86.6,77.0,29.92,SE,126,2.0,17.0,72,0.00,,,0.00,weatherlink.com 1.10,2013-06-05 13:48:00,
2013-06-05 10:03:00,86.5,77.0,29.92,SE,135,5.0,21.0,72,0.00,,,0.00,weatherlink.com 1.10,2013-06-05 14:03:00,
2013-06-05 10:18:00,86.5,77.0,29.91,ESE,121,10.0,22.0,73,0.00,,,0.00,weatherlink.com 1.10,2013-06-05 14:18:00,
2013-06-05 10:33:00,86.6,77.0,29.92,SE,124,10.0,21.0,72,0.00,,,0.00,weatherlink.com 1.10,2013-06-05 14:33:00,
2013-06-05 10:48:00,87.2,77.0,29.93,ESE,118,12.0,21.0,71,0.00,,,0.00,weatherlink.com 1.10,2013-06-05 14:48:00,
2013-06-05 11:04:00,87.6,77.0,29.93,ESE,114,5.0,19.0,71,0.00,,,0.00,weatherlink.com 1.10,2013-06-05 15:04:00,
2013-06-05 11:19:00,87.1,77.0,29.93,East,98,10.0,21.0,72,0.00,,,0.00,weatherlink.com 1.10,2013-06-05 15:19:00,
2013-06-05 11:34:00,87.3,78.0,29.92,SE,126,14.0,19.0,73,0.00,,,0.00,weatherlink.com 1.10,2013-06-05 15:34:00,
2013-06-05 11:49:00,87.5,78.0,29.91,ESE,123,8.0,16.0,74,0.00,,,0.00,weatherlink.com 1.10,2013-06-05 15:49:00,
2013-06-05 12:04:00,86.5,78.0,29.91,East,95,7.0,18.0,75,0.00,,,0.00,weatherlink.com 1.10,2013-06-05 16:04:00,
2013-06-05 12:19:00,87.0,78.0,29.91,ESE,109,7.0,19.0,74,0.00,,,0.00,weatherlink.com 1.10,2013-06-05 16:19:00,
2013-06-05 12:34:00,87.8,77.0,29.90,SE,138,6.0,22.0,71,0.00,,,0.00,weatherlink.com 1.10,2013-06-05 16:34:00,
2013-06-05 12:49:00,88.3,77.0,29.89,NE,54,7.0,23.0,70,0.00,,,0.00,weatherlink.com 1.10,2013-06-05 16:49:00,
2013-06-05 13:04:00,87.9,77.0,29.89,East,88,13.0,22.0,70,0.00,,,0.00,weatherlink.com 1.10,2013-06-05 17:04:00,
2013-06-05 13:34:00,88.0,77.0,29.87,ESE,104,11.0,20.0,69,0.00,,,0.00,weatherlink.com 1.10,2013-06-05 17:34:00,
2013-06-05 13:49:00,87.6,77.0,29.87,ESE,107,10.0,19.0,70,0.00,,,0.00,weatherlink.com 1.10,2013-06-05 17:49:00,
2013-06-05 14:04:00,87.2,76.0,29.86,East,90,15.0,22.0,69,0.00,,,0.00,weatherlink.com 1.10,2013-06-05 18:04:00,
2013-06-05 14:19:00,87.4,76.0,29.85,ESE,111,5.0,22.0,68,0.00,,,0.00,weatherlink.com 1.10,2013-06-05 18:19:00,
2013-06-05 14:34:00,87.5,76.0,29.84,East,98,10.0,21.0,69,0.00,,,0.00,weatherlink.com 1.10,2013-06-05 18:34:00,
2013-06-05 14:49:00,87.2,76.0,29.84,SE,128,16.0,25.0,69,0.00,,,0.00,weatherlink.com 1.10,2013-06-05 18:49:00,
2013-06-05 15:04:00,86.7,76.0,29.82,ESE,108,15.0,24.0,70,0.00,,,0.00,weatherlink.com 1.10,2013-06-05 19:04:00,
2013-06-05 15:19:00,86.7,75.0,29.82,ENE,67,4.0,27.0,69,0.00,,,0.00,weatherlink.com 1.10,2013-06-05 19:19:00,
2013-06-05 15:34:00,86.4,76.0,29.81,NNE,28,11.0,24.0,70,0.00,,,0.00,weatherlink.com 1.10,2013-06-05 19:34:00,
2013-06-05 15:49:00,86.5,77.0,29.81,NE,51,7.0,21.0,72,0.00,,,0.00,weatherlink.com 1.10,2013-06-05 19:49:00,
2013-06-05 16:04:00,86.4,76.0,29.80,ENE,57,12.0,21.0,72,0.00,,,0.00,weatherlink.com 1.10,2013-06-05 20:04:00,
2013-06-05 16:19:00,86.2,76.0,29.80,SE,125,10.0,21.0,72,0.00,,,0.00,weatherlink.com 1.10,2013-06-05 20:19:00,
2013-06-05 16:34:00,86.0,76.0,29.80,East,82,15.0,22.0,73,0.00,,,0.00,weatherlink.com 1.10,2013-06-05 20:34:00,
2013-06-05 16:49:00,85.6,76.0,29.79,East,80,14.0,23.0,73,0.00,,,0.00,weatherlink.com 1.10,2013-06-05 20:49:00,
2013-06-05 17:04:00,85.0,76.0,29.78,ENE,63,12.0,23.0,74,0.00,,,0.00,weatherlink.com 1.10,2013-06-05 21:04:00,
2013-06-05 17:19:00,85.1,76.0,29.78,ENE,78,8.0,22.0,75,0.00,,,0.00,weatherlink.com 1.10,2013-06-05 21:19:00,
2013-06-05 17:34:00,85.0,77.0,29.79,ENE,76,13.0,18.0,76,0.00,,,0.00,weatherlink.com 1.10,2013-06-05 21:34:00,
2013-06-05 17:49:00,84.3,76.0,29.79,ESE,113,10.0,18.0,77,0.00,,,0.00,weatherlink.com 1.10,2013-06-05 21:49:00,
2013-06-05 18:04:00,84.1,77.0,29.78,East,98,7.0,18.0,78,0.00,,,0.00,weatherlink.com 1.10,2013-06-05 22:04:00,
2013-06-05 18:19:00,83.7,77.0,29.78,ENE,63,10.0,19.0,79,0.00,,,0.00,weatherlink.com 1.10,2013-06-05 22:19:00,
2013-06-05 18:34:00,83.4,76.0,29.79,ENE,78,4.0,18.0,79,0.00,,,0.00,weatherlink.com 1.10,2013-06-05 22:34:00,
2013-06-05 18:49:00,83.0,76.0,29.79,ENE,61,5.0,22.0,80,0.00,,,0.00,weatherlink.com 1.10,2013-06-05 22:49:00,
2013-06-05 19:04:00,82.8,76.0,29.79,East,82,7.0,16.0,80,0.00,,,0.00,weatherlink.com 1.10,2013-06-05 23:04:00,
2013-06-05 19:19:00,82.6,76.0,29.80,ESE,103,5.0,18.0,81,0.00,,,0.00,weatherlink.com 1.10,2013-06-05 23:19:00,
2013-06-05 19:34:00,82.5,76.0,29.80,ENE,64,15.0,19.0,81,0.00,,,0.00,weatherlink.com 1.10,2013-06-05 23:34:00,
2013-06-05 19:49:00,82.6,76.0,29.81,ENE,59,9.0,18.0,81,0.00,,,0.00,weatherlink.com 1.10,2013-06-05 23:49:00,
2013-06-05 20:04:00,82.4,76.0,29.82,ENE,77,10.0,18.0,81,0.00,,,0.00,weatherlink.com 1.10,2013-06-06 00:04:00,
2013-06-05 20:19:00,82.3,77.0,29.82,NE,52,5.0,16.0,83,0.00,,,0.00,weatherlink.com 1.10,2013-06-06 00:19:00,
2013-06-05 20:34:00,82.4,77.0,29.83,ESE,105,8.0,14.0,84,0.00,,,0.00,weatherlink.com 1.10,2013-06-06 00:34:00,
2013-06-05 20:49:00,82.2,77.0,29.84,East,100,9.0,18.0,83,0.00,,,0.00,weatherlink.com 1.10,2013-06-06 00:49:00,
2013-06-05 21:04:00,82.2,77.0,29.84,ENE,63,9.0,14.0,83,0.00,,,0.00,weatherlink.com 1.10,2013-06-06 01:04:00,
2013-06-05 21:19:00,82.3,77.0,29.85,ENE,77,7.0,15.0,83,0.00,,,0.00,weatherlink.com 1.10,2013-06-06 01:19:00,
2013-06-05 21:34:00,82.2,77.0,29.85,East,98,9.0,16.0,84,0.00,,,0.00,weatherlink.com 1.10,2013-06-06 01:34:00,
2013-06-05 21:49:00,82.1,77.0,29.86,East,88,3.0,10.0,84,0.00,,,0.00,weatherlink.com 1.10,2013-06-06 01:49:00,
2013-06-05 22:04:00,82.1,77.0,29.86,ENE,63,2.0,14.0,84,0.00,,,0.00,weatherlink.com 1.10,2013-06-06 02:04:00,
2013-06-05 22:19:00,82.1,77.0,29.86,ENE,69,7.0,16.0,84,0.00,,,0.00,weatherlink.com 1.10,2013-06-06 02:19:00,
2013-06-05 22:34:00,82.1,77.0,29.87,East,89,8.0,15.0,84,0.00,,,0.00,weatherlink.com 1.10,2013-06-06 02:34:00,
2013-06-05 22:49:00,82.1,77.0,29.87,East,90,7.0,16.0,83,0.00,,,0.00,weatherlink.com 1.10,2013-06-06 02:49:00,
2013-06-05 23:04:00,82.2,77.0,29.88,ESE,109,7.0,15.0,84,0.00,,,0.00,weatherlink.com 1.10,2013-06-06 03:04:00,
2013-06-05 23:19:00,82.1,77.0,29.88,ENE,71,10.0,14.0,84,0.00,,,0.00,weatherlink.com 1.10,2013-06-06 03:19:00,
2013-06-05 23:34:00,82.1,77.0,29.88,ENE,64,4.0,16.0,84,0.00,,,0.00,weatherlink.com 1.10,2013-06-06 03:34:00,
2013-06-05 23:49:00,82.1,77.0,29.88,East,84,8.0,17.0,84,0.00,,,0.00,weatherlink.com 1.10,2013-06-06 03:49:00,